contact:dominique.lefevre@mio.osupytheas.fr, maurice.libes@osupytheas.fr, didier.mallarino@osupytheas.fr
Project:EMSO http://www.emso-fr.org/EMSO-France
Depth: 2436.0 m
Title:EMSO Ligure Ouest : Data MII capteur AQUADOPP
Date,Latitude,Longitude,X_East,Y_North,Z_Up,Amplitude_X,Amplitude_Y,Amplitude_Z,Batterie,SoundSpeed,Heading,Pitch,Roll,Pressure,TIS,Speed,Direction
, degrees North, degrees East, m.s-1, m.s-1,m.s-1, 1, 1, 1, Volt, m.s-1, degree, degree, degree, dbar, degree_C, m.s-1, degree
2021-03-13T00:04:03,42.805,6.029,0.083,-0.032,0.042,105.0,105.0,103.0,13.3,1505.2,326.7,-0.7,1.8,2470.383,13.28,0.088,111.1
2021-03-13T00:07:03,42.805,6.029,0.079,-0.019,0.006,106.0,104.0,104.0,13.4,1505.2,326.8,-0.8,1.8,2470.376,13.28,0.081,103.5
2021-03-13T00:10:03,42.805,6.029,0.07,-0.018,0.069,105.0,106.0,104.0,13.4,1505.2,327.1,-0.8,1.8,2470.384,13.28,0.072,104.4
2021-03-13T00:13:03,42.805,6.029,0.06,-0.031,0.029,105.0,107.0,103.0,13.4,1505.2,327.8,-0.7,1.8,2470.361,13.28,0.067,117.3
2021-03-13T00:16:03,42.805,6.029,0.069,-0.032,0.0,105.0,104.0,105.0,13.4,1505.2,327.0,-0.8,1.8,2470.361,13.28,0.076,114.9
2021-03-13T00:19:03,42.805,6.029,0.09,-0.032,0.037,106.0,106.0,103.0,13.4,1505.2,327.2,-0.8,1.8,2470.338,13.28,0.095,109.6
2021-03-13T00:22:03,42.805,6.029,0.081,-0.027,0.021,105.0,105.0,103.0,13.4,1505.2,327.1,-0.8,1.8,2470.369,13.28,0.085,108.4
2021-03-13T00:25:03,42.805,6.029,0.085,-0.032,0.041,107.0,107.0,103.0,13.4,1505.2,327.5,-0.8,1.9,2470.35,13.28,0.09,110.6
2021-03-13T00:28:03,42.805,6.029,0.084,-0.045,0.028,105.0,106.0,103.0,13.4,1505.2,327.0,-0.7,1.8,2470.369,13.28,0.095,118.2
2021-03-13T00:31:03,42.805,6.029,0.077,-0.029,-0.003,106.0,107.0,103.0,13.4,1505.2,327.1,-0.8,1.9,2470.367,13.28,0.082,110.6
2021-03-13T00:34:03,42.805,6.029,0.109,-0.034,0.008,105.0,105.0,103.0,13.4,1505.2,326.8,-0.8,1.8,2470.364,13.28,0.114,107.3
2021-03-13T00:37:03,42.805,6.029,0.101,-0.038,0.01,104.0,105.0,102.0,13.3,1505.2,327.4,-0.8,1.8,2470.405,13.28,0.107,110.6
2021-03-13T00:40:03,42.805,6.029,0.091,-0.017,0.027,107.0,106.0,103.0,13.3,1505.2,327.1,-0.7,1.8,2470.333,13.28,0.092,100.6
2021-03-13T00:43:03,42.805,6.029,0.084,-0.033,0.006,106.0,105.0,103.0,13.3,1505.2,327.7,-0.7,1.8,2470.371,13.28,0.09,111.4
2021-03-13T00:46:03,42.805,6.029,0.065,-0.015,0.001,105.0,105.0,103.0,13.4,1505.2,327.1,-0.8,1.8,2470.377,13.28,0.066,103.0
2021-03-13T00:49:03,42.805,6.029,0.088,-0.033,0.04,105.0,105.0,103.0,13.4,1505.2,327.4,-0.8,1.8,2470.368,13.28,0.093,110.6
2021-03-13T00:52:03,42.805,6.029,0.095,-0.031,0.025,105.0,105.0,103.0,13.4,1505.2,327.3,-0.7,1.8,2470.376,13.28,0.099,108.1
2021-03-13T00:55:03,42.805,6.029,0.071,-0.015,0.0,106.0,106.0,103.0,13.4,1505.2,326.9,-0.8,1.8,2470.384,13.28,0.072,101.9
2021-03-13T00:58:03,42.805,6.029,0.075,-0.021,0.003,106.0,105.0,103.0,13.3,1505.2,327.1,-0.8,1.8,2470.378,13.28,0.077,105.6
2021-03-13T01:04:03,42.805,6.029,0.1,-0.038,0.03,105.0,106.0,103.0,13.4,1505.2,326.8,-0.8,1.8,2470.393,13.28,0.106,110.8
2021-03-13T01:07:03,42.805,6.029,0.093,-0.045,0.032,105.0,105.0,103.0,13.4,1505.2,327.3,-0.7,1.8,2470.408,13.28,0.103,115.8
2021-03-13T01:10:03,42.805,6.029,0.118,-0.045,0.023,106.0,103.0,102.0,13.3,1505.2,327.6,-0.7,1.8,2470.338,13.28,0.126,110.9
2021-03-13T01:13:03,42.805,6.029,0.081,-0.016,0.063,105.0,105.0,103.0,13.4,1505.2,327.5,-0.7,1.8,2470.36,13.28,0.082,101.2
2021-03-13T01:16:03,42.805,6.029,0.097,-0.028,0.019,106.0,105.0,102.0,13.3,1505.2,327.0,-0.8,1.8,2470.338,13.28,0.1,106.1
2021-03-13T01:19:03,42.805,6.029,0.07,-0.023,0.017,106.0,105.0,104.0,13.4,1505.2,327.7,-0.8,1.8,2470.371,13.28,0.073,108.2
2021-03-13T01:22:03,42.805,6.029,0.108,-0.027,0.025,106.0,105.0,104.0,13.4,1505.2,327.1,-0.7,1.8,2470.35,13.28,0.111,104.0
2021-03-13T01:25:03,42.805,6.029,0.085,-0.033,0.051,104.0,105.0,103.0,13.4,1505.2,327.5,-0.8,1.8,2470.306,13.28,0.091,111.2
2021-03-13T01:28:03,42.805,6.029,0.092,-0.024,0.03,107.0,104.0,103.0,13.4,1505.2,326.7,-0.8,1.8,2470.343,13.28,0.095,104.6
2021-03-13T01:31:03,42.805,6.029,0.1,-0.03,0.048,106.0,104.0,103.0,13.4,1505.2,327.6,-0.7,1.8,2470.352,13.28,0.104,106.7
2021-03-13T01:34:03,42.805,6.029,0.058,-0.026,0.045,106.0,105.0,102.0,13.4,1505.2,327.4,-0.8,1.8,2470.34,13.28,0.063,114.1
2021-03-13T01:37:03,42.805,6.029,0.093,-0.045,0.015,105.0,106.0,103.0,13.4,1505.2,327.5,-0.8,1.8,2470.356,13.28,0.103,115.8
2021-03-13T01:40:03,42.805,6.029,0.089,-0.045,0.009,107.0,104.0,101.0,13.4,1505.2,327.3,-0.7,1.8,2470.343,13.28,0.099,116.8
2021-03-13T01:43:03,42.805,6.029,0.065,-0.011,0.031,105.0,106.0,104.0,13.3,1505.2,327.5,-0.7,1.8,2470.347,13.28,0.065,99.6
2021-03-13T01:46:03,42.805,6.029,0.072,-0.016,0.051,106.0,104.0,103.0,13.4,1505.2,327.0,-0.7,1.8,2470.352,13.28,0.073,102.5
2021-03-13T01:49:03,42.805,6.029,0.087,-0.037,0.016,106.0,105.0,103.0,13.4,1505.2,327.2,-0.8,1.8,2470.364,13.28,0.094,113.0
2021-03-13T01:52:03,42.805,6.029,0.086,-0.03,0.015,105.0,105.0,104.0,13.3,1505.2,327.7,-0.8,1.9,2470.369,13.28,0.091,109.2
2021-03-13T01:55:03,42.805,6.029,0.084,-0.033,0.013,105.0,104.0,104.0,13.4,1505.2,327.6,-0.8,1.8,2470.367,13.28,0.09,111.4
2021-03-13T01:58:03,42.805,6.029,0.064,-0.021,0.031,105.0,104.0,104.0,13.4,1505.2,327.1,-0.8,1.8,2470.386,13.28,0.067,108.2
2021-03-13T02:04:03,42.805,6.029,0.091,-0.027,0.023,105.0,106.0,103.0,13.4,1505.2,327.5,-0.8,1.8,2470.408,13.28,0.094,106.5
2021-03-13T02:07:03,42.805,6.029,0.089,-0.043,0.003,105.0,105.0,104.0,13.4,1505.2,327.1,-0.8,1.8,2470.366,13.28,0.098,115.8
2021-03-13T02:10:03,42.805,6.029,0.102,-0.021,0.012,106.0,106.0,103.0,13.4,1505.2,327.2,-0.8,1.8,2470.418,13.28,0.104,101.6
2021-03-13T02:13:03,42.805,6.029,0.053,-0.024,0.022,106.0,105.0,104.0,13.4,1505.2,327.0,-0.8,1.8,2470.356,13.28,0.058,114.4
2021-03-13T02:16:03,42.805,6.029,0.105,-0.031,0.026,106.0,104.0,103.0,13.3,1505.2,327.2,-0.7,1.8,2470.341,13.28,0.109,106.4
2021-03-13T02:19:03,42.805,6.029,0.098,-0.028,0.015,104.0,105.0,103.0,13.4,1505.2,327.1,-0.7,1.9,2470.394,13.28,0.101,105.9
2021-03-13T02:22:03,42.805,6.029,0.09,-0.043,0.014,105.0,107.0,104.0,13.4,1505.2,326.8,-0.8,1.8,2470.34,13.28,0.099,115.5
2021-03-13T02:25:03,42.805,6.029,0.08,-0.037,0.03,105.0,105.0,104.0,13.4,1505.2,327.1,-0.8,1.8,2470.336,13.28,0.088,114.8
2021-03-13T02:28:03,42.805,6.029,0.077,-0.026,0.032,106.0,104.0,103.0,13.4,1505.2,327.0,-0.8,1.8,2470.319,13.28,0.081,108.7
2021-03-13T02:31:03,42.805,6.029,0.107,-0.047,0.031,106.0,106.0,104.0,13.3,1505.2,327.7,-0.8,1.8,2470.324,13.28,0.116,113.7
2021-03-13T02:34:03,42.805,6.029,0.09,-0.038,0.033,105.0,105.0,103.0,13.4,1505.2,327.0,-0.7,1.8,2470.353,13.28,0.097,112.9
2021-03-13T02:37:03,42.805,6.029,0.087,-0.036,0.008,105.0,104.0,103.0,13.4,1505.2,327.4,-0.8,1.8,2470.384,13.28,0.094,112.5
2021-03-13T02:40:03,42.805,6.029,0.111,-0.027,0.037,106.0,106.0,104.0,13.4,1505.2,327.0,-0.7,1.8,2470.395,13.28,0.114,103.7
2021-03-13T02:43:03,42.805,6.029,0.115,-0.032,0.009,104.0,104.0,103.0,13.4,1505.2,327.0,-0.8,1.9,2470.356,13.28,0.119,105.5
2021-03-13T02:46:03,42.805,6.029,0.098,-0.044,0.018,105.0,106.0,103.0,13.4,1505.2,327.1,-0.7,1.8,2470.385,13.28,0.107,114.2
2021-03-13T02:49:03,42.805,6.029,0.089,-0.038,0.02,104.0,106.0,104.0,13.3,1505.2,327.5,-0.8,1.8,2470.386,13.28,0.096,113.1
2021-03-13T02:52:03,42.805,6.029,0.085,-0.024,0.029,107.0,105.0,103.0,13.3,1505.2,327.2,-0.7,1.8,2470.376,13.28,0.088,105.8
2021-03-13T02:55:03,42.805,6.029,0.107,-0.055,0.066,106.0,103.0,102.0,13.4,1505.2,327.3,-0.7,1.8,2470.384,13.28,0.12,117.2
2021-03-13T02:58:03,42.805,6.029,0.064,-0.025,0.006,106.0,106.0,103.0,13.3,1505.2,327.1,-0.8,1.8,2470.391,13.28,0.068,111.3
2021-03-13T03:04:03,42.805,6.029,0.095,-0.021,0.033,106.0,105.0,102.0,13.4,1505.2,327.5,-0.8,1.8,2470.501,13.28,0.097,102.5
2021-03-13T03:07:03,42.805,6.029,0.087,-0.023,0.011,106.0,104.0,103.0,13.4,1505.2,327.2,-0.8,1.8,2470.443,13.28,0.089,104.8
2021-03-13T03:10:03,42.805,6.029,0.111,-0.047,0.009,106.0,104.0,102.0,13.4,1505.2,327.0,-0.8,1.8,2470.462,13.28,0.12,112.9
2021-03-13T03:13:03,42.805,6.029,0.098,-0.035,0.023,105.0,106.0,103.0,13.3,1505.2,326.7,-0.8,1.8,2470.442,13.28,0.104,109.6
2021-03-13T03:16:03,42.805,6.029,0.072,-0.025,0.017,106.0,105.0,103.0,13.4,1505.2,326.8,-0.7,1.8,2470.472,13.28,0.076,109.1
2021-03-13T03:19:03,42.805,6.029,0.096,-0.044,0.005,105.0,104.0,104.0,13.4,1505.2,327.2,-0.7,1.8,2470.453,13.28,0.105,114.6
2021-03-13T03:22:03,42.805,6.029,0.078,-0.028,0.006,104.0,104.0,103.0,13.4,1505.2,327.3,-0.7,1.8,2470.446,13.28,0.082,109.7
2021-03-13T03:25:03,42.805,6.029,0.106,-0.04,0.033,105.0,104.0,103.0,13.4,1505.2,327.2,-0.7,1.9,2470.477,13.28,0.113,110.7
2021-03-13T03:28:03,42.805,6.029,0.083,-0.021,0.012,107.0,106.0,102.0,13.4,1505.2,326.8,-0.8,1.8,2470.469,13.28,0.085,104.2
2021-03-13T03:31:03,42.805,6.029,0.078,-0.031,0.028,106.0,105.0,103.0,13.4,1505.2,326.8,-0.7,1.8,2470.46,13.28,0.083,111.7
2021-03-13T03:34:03,42.805,6.029,0.096,-0.039,0.008,106.0,103.0,103.0,13.4,1505.2,327.2,-0.8,1.9,2470.489,13.28,0.103,112.1
2021-03-13T03:37:03,42.805,6.029,0.097,-0.031,0.042,105.0,104.0,103.0,13.4,1505.2,326.8,-0.8,1.8,2470.518,13.28,0.101,107.7
2021-03-13T03:40:03,42.805,6.029,0.084,-0.026,0.017,106.0,106.0,103.0,13.3,1505.2,327.5,-0.8,1.9,2470.501,13.28,0.087,107.2
2021-03-13T03:43:03,42.805,6.029,0.048,-0.046,-0.016,105.0,105.0,103.0,13.4,1505.2,327.0,-0.7,1.8,2470.485,13.28,0.066,133.8
2021-03-13T03:46:03,42.805,6.029,0.089,-0.036,0.003,104.0,105.0,104.0,13.4,1505.2,327.4,-0.7,1.8,2470.533,13.28,0.096,112.0
2021-03-13T03:49:03,42.805,6.029,0.092,-0.022,-0.007,106.0,105.0,103.0,13.4,1505.2,327.6,-0.7,1.8,2470.514,13.28,0.094,103.4
2021-03-13T03:52:03,42.805,6.029,0.098,-0.03,0.025,104.0,105.0,103.0,13.4,1505.2,327.0,-0.8,1.8,2470.547,13.28,0.102,107.0
2021-03-13T03:55:03,42.805,6.029,0.099,-0.036,0.002,105.0,104.0,103.0,13.3,1505.2,327.4,-0.8,1.8,2470.547,13.28,0.105,110.0
2021-03-13T03:58:03,42.805,6.029,0.075,-0.031,0.006,105.0,105.0,103.0,13.4,1505.2,327.3,-0.8,1.9,2470.519,13.28,0.081,112.5
2021-03-13T04:04:03,42.805,6.029,0.08,-0.017,0.015,106.0,106.0,103.0,13.4,1505.2,327.2,-0.8,1.8,2470.569,13.28,0.081,102.0
2021-03-13T04:07:03,42.805,6.029,0.118,-0.043,0.031,104.0,105.0,102.0,13.3,1505.2,327.1,-0.8,1.8,2470.545,13.28,0.125,110.0
2021-03-13T04:10:03,42.805,6.029,0.072,-0.02,0.017,105.0,105.0,103.0,13.3,1505.2,327.3,-0.7,1.8,2470.553,13.28,0.074,105.5
2021-03-13T04:13:03,42.805,6.029,0.1,-0.013,0.052,105.0,105.0,103.0,13.3,1505.2,327.0,-0.8,1.8,2470.537,13.28,0.1,97.4
2021-03-13T04:16:03,42.805,6.029,0.088,-0.033,0.052,107.0,105.0,102.0,13.4,1505.2,327.3,-0.7,1.8,2470.557,13.28,0.093,110.6
2021-03-13T04:19:03,42.805,6.029,0.089,-0.025,0.042,105.0,104.0,103.0,13.4,1505.2,327.5,-0.7,1.8,2470.564,13.28,0.092,105.7
2021-03-13T04:22:03,42.805,6.029,0.068,-0.031,0.03,104.0,105.0,103.0,13.4,1505.2,327.0,-0.8,1.8,2470.536,13.28,0.074,114.5
2021-03-13T04:25:03,42.805,6.029,0.091,-0.014,0.025,106.0,105.0,103.0,13.3,1505.2,327.0,-0.7,1.9,2470.583,13.28,0.092,98.7
2021-03-13T04:28:03,42.805,6.029,0.089,-0.032,0.04,105.0,104.0,102.0,13.4,1505.2,327.0,-0.8,1.8,2470.607,13.28,0.094,109.8
2021-03-13T04:31:03,42.805,6.029,0.067,-0.025,0.032,105.0,105.0,103.0,13.4,1505.2,327.4,-0.8,1.8,2470.615,13.28,0.071,110.5
2021-03-13T04:34:03,42.805,6.029,0.078,-0.027,0.03,106.0,106.0,103.0,13.4,1505.2,327.7,-0.8,1.8,2470.553,13.28,0.082,109.1
2021-03-13T04:37:03,42.805,6.029,0.095,-0.013,0.062,105.0,105.0,103.0,13.4,1505.2,326.8,-0.7,1.8,2470.587,13.28,0.095,97.8
2021-03-13T04:40:03,42.805,6.029,0.1,-0.027,0.043,104.0,105.0,104.0,13.4,1505.2,327.5,-0.7,1.8,2470.527,13.28,0.103,105.1
2021-03-13T04:43:03,42.805,6.029,0.079,-0.042,0.009,104.0,106.0,103.0,13.3,1505.2,327.3,-0.8,1.8,2470.626,13.28,0.089,118.0
2021-03-13T04:46:03,42.805,6.029,0.095,-0.025,0.023,106.0,104.0,104.0,13.3,1505.2,327.4,-0.8,1.8,2470.574,13.28,0.098,104.7
2021-03-13T04:49:03,42.805,6.029,0.106,-0.025,0.019,104.0,104.0,103.0,13.4,1505.2,326.8,-0.8,1.8,2470.585,13.28,0.108,103.3
2021-03-13T04:52:03,42.805,6.029,0.08,-0.035,0.006,104.0,104.0,104.0,13.4,1505.2,327.0,-0.8,1.8,2470.631,13.28,0.087,113.6
2021-03-13T04:55:03,42.805,6.029,0.092,-0.018,0.07,107.0,104.0,103.0,13.4,1505.2,327.1,-0.8,1.8,2470.596,13.28,0.093,101.1
2021-03-13T04:58:03,42.805,6.029,0.085,-0.035,0.034,105.0,105.0,103.0,13.3,1505.2,327.0,-0.8,1.8,2470.594,13.28,0.091,112.4
2021-03-13T05:04:03,42.805,6.029,0.063,-0.018,0.025,105.0,110.0,103.0,13.4,1505.2,327.7,-0.7,1.8,2470.657,13.28,0.065,105.9
2021-03-13T05:07:03,42.805,6.029,0.073,-0.023,0.02,105.0,106.0,102.0,13.4,1505.2,327.7,-0.7,1.8,2470.625,13.28,0.076,107.5
2021-03-13T05:10:03,42.805,6.029,0.09,-0.02,0.035,104.0,105.0,103.0,13.4,1505.2,327.2,-0.8,1.8,2470.629,13.28,0.092,102.5
2021-03-13T05:13:03,42.805,6.029,0.093,-0.032,0.053,105.0,106.0,103.0,13.4,1505.2,326.7,-0.7,1.8,2470.643,13.28,0.098,109.0
2021-03-13T05:16:03,42.805,6.029,0.098,-0.005,0.021,106.0,105.0,102.0,13.4,1505.2,327.6,-0.8,1.8,2470.614,13.28,0.098,92.9
2021-03-13T05:19:03,42.805,6.029,0.114,-0.041,0.03,104.0,106.0,103.0,13.4,1505.2,327.2,-0.7,1.9,2470.642,13.28,0.121,109.8
2021-03-13T05:22:03,42.805,6.029,0.08,-0.023,0.055,105.0,105.0,102.0,13.3,1505.2,327.2,-0.8,1.8,2470.635,13.28,0.083,106.0
2021-03-13T05:25:03,42.805,6.029,0.103,-0.024,0.021,104.0,104.0,104.0,13.3,1505.2,327.3,-0.8,1.8,2470.639,13.28,0.105,103.1
2021-03-13T05:28:03,42.805,6.029,0.084,-0.038,0.03,106.0,104.0,102.0,13.3,1505.2,327.0,-0.7,1.8,2470.633,13.28,0.092,114.3
2021-03-13T05:31:03,42.805,6.029,0.074,-0.014,0.027,104.0,106.0,103.0,13.4,1505.2,327.0,-0.8,1.8,2470.669,13.28,0.075,100.7
2021-03-13T05:34:03,42.805,6.029,0.113,-0.016,0.059,104.0,106.0,105.0,13.4,1505.2,327.6,-0.7,1.8,2470.62,13.28,0.114,98.1
2021-03-13T05:37:03,42.805,6.029,0.087,-0.02,0.032,104.0,105.0,103.0,13.4,1505.2,327.4,-0.7,1.8,2470.675,13.28,0.089,102.9
2021-03-13T05:40:03,42.805,6.029,0.097,-0.041,0.037,106.0,104.0,103.0,13.4,1505.2,327.1,-0.8,1.8,2470.657,13.28,0.105,112.9
2021-03-13T05:43:03,42.805,6.029,0.083,-0.04,0.017,105.0,106.0,102.0,13.4,1505.2,327.3,-0.8,1.8,2470.624,13.28,0.092,115.7
2021-03-13T05:46:03,42.805,6.029,0.078,-0.032,0.0,104.0,104.0,103.0,13.4,1505.2,327.5,-0.7,1.8,2470.631,13.28,0.084,112.3
2021-03-13T05:49:03,42.805,6.029,0.085,-0.03,0.0,106.0,105.0,102.0,13.3,1505.2,327.6,-0.7,1.8,2470.656,13.28,0.09,109.4
2021-03-13T05:52:03,42.805,6.029,0.069,-0.021,0.018,106.0,105.0,104.0,13.4,1505.2,327.0,-0.8,1.8,2470.632,13.28,0.072,106.9
2021-03-13T05:55:03,42.805,6.029,0.051,-0.004,0.004,106.0,104.0,104.0,13.3,1505.2,327.1,-0.8,1.8,2470.654,13.28,0.051,94.5
2021-03-13T05:58:03,42.805,6.029,0.094,-0.013,0.044,104.0,105.0,103.0,13.4,1505.2,327.5,-0.8,1.8,2470.651,13.28,0.094,97.9
2021-03-13T06:04:03,42.805,6.029,0.059,-0.025,0.004,107.0,106.0,103.0,13.3,1505.2,327.4,-0.8,1.9,2470.724,13.28,0.064,113.0
2021-03-13T06:07:03,42.805,6.029,0.104,-0.012,0.035,105.0,106.0,102.0,13.3,1505.2,327.3,-0.8,1.8,2470.66,13.28,0.104,96.6
2021-03-13T06:10:03,42.805,6.029,0.085,-0.011,0.025,105.0,103.0,102.0,13.4,1505.2,327.5,-0.8,1.8,2470.698,13.28,0.085,97.4
2021-03-13T06:13:03,42.805,6.029,0.085,-0.014,0.059,106.0,105.0,103.0,13.4,1505.2,327.2,-0.8,1.8,2470.717,13.28,0.086,99.4
2021-03-13T06:16:03,42.805,6.029,0.085,-0.021,0.024,105.0,106.0,102.0,13.3,1505.2,327.0,-0.8,1.8,2470.674,13.28,0.087,103.9
2021-03-13T06:19:03,42.805,6.029,0.087,-0.027,0.039,105.0,105.0,103.0,13.3,1505.2,327.1,-0.8,1.8,2470.675,13.28,0.091,107.2
2021-03-13T06:22:03,42.805,6.029,0.067,-0.019,0.039,105.0,106.0,103.0,13.4,1505.2,327.1,-0.7,1.8,2470.699,13.28,0.069,105.8
2021-03-13T06:25:03,42.805,6.029,0.075,-0.014,0.021,105.0,104.0,103.0,13.4,1505.2,327.3,-0.8,1.8,2470.677,13.28,0.076,100.6
2021-03-13T06:28:03,42.805,6.029,0.085,-0.018,0.025,106.0,106.0,103.0,13.3,1505.2,327.1,-0.8,1.8,2470.707,13.28,0.086,102.0
2021-03-13T06:31:03,42.805,6.029,0.074,-0.027,0.005,106.0,107.0,103.0,13.4,1505.2,327.2,-0.8,1.8,2470.707,13.28,0.078,110.0
2021-03-13T06:34:03,42.805,6.029,0.091,-0.024,0.024,106.0,106.0,103.0,13.4,1505.2,327.6,-0.8,1.8,2470.697,13.28,0.094,104.8
2021-03-13T06:37:03,42.805,6.029,0.087,-0.034,0.045,106.0,106.0,103.0,13.4,1505.2,327.0,-0.7,1.8,2470.665,13.28,0.093,111.3
2021-03-13T06:40:03,42.805,6.029,0.091,-0.014,0.017,105.0,105.0,103.0,13.4,1505.2,327.4,-0.8,1.8,2470.686,13.28,0.092,98.7
2021-03-13T06:43:03,42.805,6.029,0.071,-0.03,0.026,105.0,106.0,103.0,13.3,1505.2,327.4,-0.8,1.8,2470.708,13.28,0.077,112.9
2021-03-13T06:46:03,42.805,6.029,0.082,-0.025,0.013,104.0,106.0,103.0,13.4,1505.2,327.1,-0.8,1.8,2470.705,13.28,0.085,107.0
2021-03-13T06:49:03,42.805,6.029,0.081,-0.021,0.024,106.0,108.0,103.0,13.3,1505.2,327.0,-0.7,1.8,2470.666,13.28,0.083,104.5
2021-03-13T06:52:03,42.805,6.029,0.079,-0.034,0.013,105.0,106.0,103.0,13.3,1505.2,327.0,-0.7,1.9,2470.671,13.28,0.086,113.3
2021-03-13T06:55:03,42.805,6.029,0.095,-0.016,0.049,104.0,107.0,103.0,13.4,1505.2,327.0,-0.7,1.9,2470.707,13.28,0.096,99.6
2021-03-13T06:58:03,42.805,6.029,0.08,-0.023,0.018,105.0,104.0,103.0,13.3,1505.2,327.0,-0.7,1.8,2470.707,13.28,0.083,106.0
2021-03-13T07:04:03,42.805,6.029,0.078,-0.039,0.008,105.0,105.0,103.0,13.4,1505.2,327.5,-0.8,1.8,2470.758,13.28,0.087,116.6
2021-03-13T07:07:03,42.805,6.029,0.073,-0.013,0.02,105.0,104.0,102.0,13.4,1505.2,326.7,-0.8,1.8,2470.709,13.28,0.074,100.1
2021-03-13T07:10:03,42.805,6.029,0.097,-0.026,0.034,106.0,106.0,102.0,13.4,1505.2,327.5,-0.8,1.8,2470.716,13.28,0.1,105.0
2021-03-13T07:13:03,42.805,6.029,0.083,-0.019,0.042,106.0,105.0,103.0,13.4,1505.2,327.4,-0.7,1.8,2470.728,13.28,0.085,102.9
2021-03-13T07:16:03,42.805,6.029,0.086,-0.011,0.043,105.0,107.0,103.0,13.3,1505.2,326.9,-0.8,1.8,2470.716,13.28,0.086,97.3
2021-03-13T07:19:03,42.805,6.029,0.078,-0.042,0.031,106.0,106.0,102.0,13.4,1505.2,327.1,-0.8,1.8,2470.714,13.28,0.088,118.3
2021-03-13T07:22:03,42.805,6.029,0.085,-0.028,0.008,104.0,105.0,105.0,13.4,1505.2,327.3,-0.7,1.8,2470.67,13.28,0.089,108.2
2021-03-13T07:25:03,42.805,6.029,0.073,-0.039,0.015,105.0,105.0,103.0,13.4,1505.2,327.4,-0.8,1.8,2470.72,13.28,0.082,118.1
2021-03-13T07:28:03,42.805,6.029,0.062,-0.006,0.041,106.0,107.0,103.0,13.4,1505.2,327.1,-0.7,1.8,2470.692,13.28,0.062,95.5
2021-03-13T07:31:03,42.805,6.029,0.075,-0.024,0.016,106.0,105.0,103.0,13.4,1505.2,327.4,-0.7,1.9,2470.706,13.28,0.078,107.7
2021-03-13T07:34:03,42.805,6.029,0.084,-0.007,0.018,103.0,107.0,103.0,13.3,1505.2,327.2,-0.8,1.8,2470.723,13.28,0.084,94.8
2021-03-13T07:37:03,42.805,6.029,0.089,-0.012,0.013,105.0,106.0,104.0,13.4,1505.2,327.1,-0.8,1.8,2470.709,13.28,0.089,97.7
2021-03-13T07:40:03,42.805,6.029,0.08,-0.012,0.044,105.0,106.0,103.0,13.4,1505.2,327.1,-0.8,1.8,2470.72,13.28,0.08,98.5
2021-03-13T07:43:03,42.805,6.029,0.096,-0.037,0.031,105.0,107.0,103.0,13.4,1505.2,327.4,-0.7,1.8,2470.676,13.28,0.102,111.1
2021-03-13T07:46:03,42.805,6.029,0.05,-0.02,0.01,106.0,107.0,104.0,13.3,1505.2,327.2,-0.8,1.8,2470.744,13.28,0.053,111.8
2021-03-13T07:49:03,42.805,6.029,0.073,-0.008,0.043,105.0,106.0,104.0,13.3,1505.2,327.3,-0.7,1.8,2470.661,13.28,0.073,96.3
2021-03-13T07:52:03,42.805,6.029,0.092,-0.016,0.02,105.0,106.0,102.0,13.3,1505.2,326.8,-0.7,1.8,2470.674,13.28,0.093,99.9
2021-03-13T07:55:03,42.805,6.029,0.074,-0.017,0.018,106.0,106.0,103.0,13.4,1505.2,327.1,-0.7,1.8,2470.668,13.28,0.075,102.9
2021-03-13T07:58:03,42.805,6.029,0.073,-0.023,0.026,106.0,105.0,103.0,13.4,1505.2,326.8,-0.8,1.8,2470.686,13.28,0.076,107.5
2021-03-13T08:04:03,42.805,6.029,0.089,-0.016,0.029,104.0,107.0,103.0,13.3,1505.2,327.0,-0.8,1.8,2470.737,13.28,0.09,100.2
2021-03-13T08:07:03,42.805,6.029,0.086,-0.031,0.021,106.0,106.0,105.0,13.3,1505.2,327.1,-0.7,1.8,2470.693,13.28,0.091,109.8
2021-03-13T08:10:03,42.805,6.029,0.073,-0.016,0.021,105.0,105.0,104.0,13.3,1505.2,327.5,-0.8,1.8,2470.741,13.28,0.074,102.4
2021-03-13T08:13:03,42.805,6.029,0.086,-0.022,0.022,106.0,106.0,102.0,13.4,1505.2,326.7,-0.8,1.8,2470.726,13.28,0.088,104.3
2021-03-13T08:16:03,42.805,6.029,0.068,-0.015,0.017,104.0,107.0,103.0,13.4,1505.2,327.5,-0.8,1.8,2470.718,13.28,0.069,102.4
2021-03-13T08:19:03,42.805,6.029,0.082,-0.025,0.02,107.0,106.0,103.0,13.4,1505.2,327.2,-0.7,1.8,2470.657,13.28,0.085,107.0
2021-03-13T08:22:03,42.805,6.029,0.095,-0.026,0.004,105.0,106.0,103.0,13.3,1505.2,327.1,-0.7,1.9,2470.678,13.28,0.098,105.3
2021-03-13T08:25:03,42.805,6.029,0.069,0.0,0.0,106.0,107.0,103.0,13.3,1505.2,327.8,-0.7,1.8,2470.67,13.28,0.068,90.0
2021-03-13T08:28:03,42.805,6.029,0.09,-0.015,0.018,105.0,106.0,103.0,13.3,1505.2,327.8,-0.7,1.8,2470.711,13.28,0.091,99.5
2021-03-13T08:31:03,42.805,6.029,0.072,-0.01,0.036,107.0,107.0,104.0,13.4,1505.2,327.2,-0.8,1.8,2470.687,13.28,0.072,97.9
2021-03-13T08:34:03,42.805,6.029,0.071,-0.001,-0.001,105.0,108.0,104.0,13.3,1505.2,326.8,-0.8,1.8,2470.667,13.28,0.071,90.8
2021-03-13T08:37:03,42.805,6.029,0.078,-0.025,0.028,105.0,107.0,104.0,13.4,1505.2,326.9,-0.7,1.8,2470.704,13.28,0.081,107.8
2021-03-13T08:40:03,42.805,6.029,0.074,-0.018,0.036,106.0,106.0,104.0,13.4,1505.2,326.8,-0.7,1.8,2470.68,13.28,0.076,103.7
2021-03-13T08:43:03,42.805,6.029,0.082,-0.023,0.032,106.0,107.0,103.0,13.4,1505.2,327.7,-0.8,1.8,2470.67,13.28,0.085,105.7
2021-03-13T08:46:03,42.805,6.029,0.094,-0.006,0.039,105.0,105.0,103.0,13.4,1505.2,327.3,-0.8,1.8,2470.649,13.28,0.094,93.6
2021-03-13T08:49:03,42.805,6.029,0.052,0.0,0.011,105.0,107.0,104.0,13.4,1505.2,327.7,-0.7,1.8,2470.689,13.28,0.052,90.0
2021-03-13T08:52:03,42.805,6.029,0.07,-0.015,0.017,106.0,107.0,103.0,13.4,1505.2,327.4,-0.7,1.8,2470.667,13.28,0.071,102.1
2021-03-13T08:55:03,42.805,6.029,0.082,-0.008,0.031,106.0,106.0,102.0,13.4,1505.2,327.0,-0.7,1.8,2470.681,13.28,0.082,95.6
2021-03-13T08:58:03,42.805,6.029,0.064,-0.008,0.017,107.0,107.0,103.0,13.4,1505.2,327.5,-0.7,1.8,2470.671,13.28,0.064,97.1
2021-03-13T09:04:03,42.805,6.029,0.075,0.005,0.031,107.0,107.0,103.0,13.4,1505.2,327.6,-0.8,1.8,2470.686,13.28,0.075,86.2
2021-03-13T09:07:03,42.805,6.029,0.06,-0.024,0.031,106.0,108.0,104.0,13.4,1505.2,327.4,-0.8,1.8,2470.639,13.28,0.064,111.8
2021-03-13T09:10:03,42.805,6.029,0.066,-0.009,0.007,106.0,105.0,104.0,13.3,1505.2,327.0,-0.7,1.8,2470.662,13.28,0.066,97.8
2021-03-13T09:13:03,42.805,6.029,0.084,-0.007,0.028,105.0,105.0,104.0,13.4,1505.2,327.0,-0.8,1.8,2470.62,13.28,0.084,94.8
2021-03-13T09:16:03,42.805,6.029,0.075,-0.022,0.011,105.0,108.0,102.0,13.4,1505.2,327.4,-0.8,1.8,2470.639,13.28,0.078,106.3
2021-03-13T09:19:03,42.805,6.029,0.061,-0.01,-0.003,106.0,106.0,103.0,13.4,1505.2,327.1,-0.8,1.8,2470.621,13.28,0.061,99.3
2021-03-13T09:22:03,42.805,6.029,0.059,-0.004,0.008,106.0,107.0,104.0,13.4,1505.2,327.2,-0.8,1.8,2470.643,13.28,0.059,93.9
2021-03-13T09:25:03,42.805,6.029,0.061,0.01,0.04,105.0,107.0,104.0,13.4,1505.2,327.3,-0.7,1.8,2470.642,13.28,0.061,80.7
2021-03-13T09:28:03,42.805,6.029,0.114,-0.056,-0.016,106.0,107.0,103.0,13.4,1505.2,327.0,-0.8,1.8,2470.609,13.28,0.127,116.2
2021-03-13T09:31:03,42.805,6.029,0.064,-0.016,-0.013,105.0,106.0,103.0,13.3,1505.2,327.1,-0.8,1.8,2470.659,13.28,0.065,104.0
2021-03-13T09:34:03,42.805,6.029,0.074,-0.022,0.022,104.0,106.0,104.0,13.4,1505.2,327.1,-0.7,1.8,2470.609,13.28,0.077,106.6
2021-03-13T09:37:03,42.805,6.029,0.055,-0.016,0.003,106.0,106.0,103.0,13.3,1505.2,327.0,-0.8,1.8,2470.629,13.28,0.057,106.2
2021-03-13T09:40:03,42.805,6.029,0.078,-0.016,0.052,105.0,106.0,103.0,13.4,1505.2,326.7,-0.8,1.8,2470.578,13.28,0.079,101.6
2021-03-13T09:43:03,42.805,6.029,0.082,-0.022,0.022,106.0,108.0,104.0,13.4,1505.2,327.2,-0.8,1.8,2470.609,13.28,0.084,105.0
2021-03-13T09:46:03,42.805,6.029,0.097,-0.019,0.044,106.0,107.0,102.0,13.3,1505.2,326.8,-0.8,1.8,2470.632,13.28,0.098,101.1
2021-03-13T09:49:03,42.805,6.029,0.072,-0.02,0.003,106.0,106.0,103.0,13.4,1505.2,327.2,-0.7,1.8,2470.602,13.28,0.074,105.5
2021-03-13T09:52:03,42.805,6.029,0.076,-0.016,0.007,107.0,109.0,104.0,13.4,1505.2,327.1,-0.7,1.8,2470.602,13.28,0.077,101.9
2021-03-13T09:55:03,42.805,6.029,0.068,0.0,0.028,107.0,108.0,104.0,13.3,1505.2,327.1,-0.7,1.8,2470.622,13.28,0.067,90.0
2021-03-13T09:58:03,42.805,6.029,0.08,-0.021,0.038,106.0,109.0,103.0,13.4,1505.2,327.6,-0.7,1.8,2470.606,13.28,0.082,104.7